グレーラー彗星

C/2025 D1 ( Groeller )

English version
Home page
Updated on August 10, 2025

---------------------------------------------------------------------

・ プロフィール

発見日 2025年2月20日
発見光度 20.6等
発見者 Hannes Groeller (Bok reflector at Kitt Peak)

・ 写真集

・ 軌道要素

Epoch 2025 May 5.0 TT = JDT 2460800.5
T 2028 May 19.88723 TT                                  Pike
q  14.1191863            (2000.0)            P               Q
z  -0.0002089      Peri.  185.88793     -0.68434699     -0.00043986
 +/-0.0000014      Node   312.89771     +0.70301150     +0.26498337
e   1.0029493      Incl.   84.46652     +0.19350460     -0.96425288
From 68 observations 2018 June 6-2025 May 2, mean residual 0".8.

・ 光度変化

        m1 = 2.5 + 5 logΔ + 10.0 log r

---------------------------------------------------------------------

軌道要素はM.P.E.C. 2025-M120に掲載されたものです。
光度グラフはComet for Windowsで作成したものです。

---------------------------------------------------------------------

Copyright(C) Seiichi Yoshida (comet@aerith.net). All rights reserved.